Location: Góry Miechowskie
(50.3599°N, 20.1803°E)
Time: 13:37:33
(UTC+00:00)

AQUA - Pass Details

Date: 15 June 2024
Orbit: 693 x 696 km, 98.3° (Epoch: 16 July)

Event Time Altitude Azimuth Distance (km) Brightness Sun altitude
Rises 01:12:34 0° 15° (NNE) 3,086 8.7 -9.0°
Reaches altitude 10° 01:14:50 10° 18° (NNE) 2,164 7.7 -8.7°
Maximum altitude 01:19:34 74° 103° (ESE) 728 4.0 -8.3°
Drops below altitude 10° 01:24:16 10° 189° (S) 2,146 5.8 -7.8°
Enters shadow 01:25:02 - 190° (S) 2,453 6.1 -7.8°
